When you browse on this site, cookies collect data to enhance your experience and personalize the content and advertising you see.
Visit our Privacy Policy to learn more. By continuing to use the site, you agree to this use of cookies and data.
  • In France
  • List of Countries
  • For 7 days
  • Water Temperature
  • Satellite Maps
  • Weather Map
  • Weather Widgets
  • user-avatar
    Login

    Hourly Weather Byala

    Today, 20 July, Saturday

    Time Temperature Precipitation Wind Pressure Humidity
    00:00 +20°C° 0 mm 1 mps 753 mmHg 75%
    01:00 +19°C° 0 mm 1 mps 753 mmHg 75%
    02:00 +19°C° 0 mm 1 mps 753 mmHg 75%
    03:00 +19°C° 0 mm 1 mps 753 mmHg 75%
    04:00 +19°C° 0 mm 1 mps 753 mmHg 74%
    05:00 +19°C° 0 mm 1 mps 753 mmHg 74%
    06:00 +21°C° 0 mm 1 mps 753 mmHg 66%
    07:00 +24°C° 0 mm 1 mps 754 mmHg 59%
    08:00 +26°C° 0 mm 1 mps 754 mmHg 51%
    09:00 +27°C° 0 mm 2 mps 754 mmHg 48%
    10:00 +28°C° 0 mm 3 mps 754 mmHg 45%
    11:00 +29°C° 0 mm 4 mps 754 mmHg 42%
    12:00 +30°C° 0 mm 4 mps 754 mmHg 41%
    13:00 +30°C° 0 mm 4 mps 754 mmHg 40%
    14:00 +30°C° 0 mm 4 mps 754 mmHg 39%
    15:00 +29°C° 0 mm 4 mps 754 mmHg 41%
    16:00 +29°C° 0 mm 4 mps 754 mmHg 43%
    17:00 +28°C° 0 mm 4 mps 754 mmHg 45%
    18:00 +26°C° 0 mm 3 mps 754 mmHg 55%
    19:00 +24°C° 0 mm 3 mps 754 mmHg 64%
    20:00 +21°C° 0 mm 2 mps 754 mmHg 74%
    21:00 +21°C° 0 mm 2 mps 754 mmHg 76%
    22:00 +21°C° 0 mm 1 mps 754 mmHg 78%
    23:00 +20°C° 0 mm 1 mps 755 mmHg 81%

    Tomorrow, 21 July, Sunday

    Time Temperature Precipitation Wind Pressure Humidity
    00:00 +20°C° 0 mm 1 mps 754 mmHg 79%
    01:00 +20°C° 0 mm 1 mps 754 mmHg 78%
    02:00 +20°C° 0 mm 1 mps 754 mmHg 77%
    03:00 +20°C° 0 mm 1 mps 754 mmHg 75%
    04:00 +19°C° 0 mm 1 mps 754 mmHg 73%
    05:00 +19°C° 0 mm 1 mps 754 mmHg 71%
    06:00 +22°C° 0 mm 1 mps 754 mmHg 63%
    07:00 +24°C° 0 mm 1 mps 754 mmHg 55%
    08:00 +27°C° 0 mm 1 mps 754 mmHg 47%
    09:00 +28°C° 0 mm 1 mps 754 mmHg 42%
    10:00 +29°C° 0 mm 1 mps 754 mmHg 38%
    11:00 +31°C° 0 mm 1 mps 754 mmHg 33%
    12:00 +31°C° 0 mm 2 mps 754 mmHg 32%
    13:00 +33°C° 0 mm 3 mps 754 mmHg 32%
    14:00 +33°C° 0 mm 3 mps 754 mmHg 31%
    15:00 +31°C° 0 mm 3 mps 754 mmHg 33%
    16:00 +32°C° 0 mm 4 mps 754 mmHg 35%
    17:00 +30°C° 0 mm 4 mps 754 mmHg 38%
    18:00 +28°C° 0 mm 3 mps 754 mmHg 47%
    19:00 +25°C° 0 mm 2 mps 754 mmHg 57%
    20:00 +23°C° 0 mm 2 mps 753 mmHg 67%
    21:00 +23°C° 0 mm 2 mps 754 mmHg 68%
    22:00 +21°C° 0 mm 2 mps 754 mmHg 69%
    23:00 +22°C° 0 mm 1 mps 754 mmHg 70%

    Day after tomorrow, 22 July, Monday

    Time Temperature Precipitation Wind Pressure Humidity
    00:00 +22°C° 0 mm 1 mps 754 mmHg 66%
    01:00 +22°C° 0 mm 1 mps 754 mmHg 63%
    02:00 +22°C° 0 mm 1 mps 753 mmHg 59%
    03:00 +22°C° 0 mm 1 mps 753 mmHg 57%
    04:00 +22°C° 0 mm 1 mps 753 mmHg 55%
    05:00 +22°C° 0 mm 1 mps 753 mmHg 52%
    06:00 +24°C° 0 mm 1 mps 753 mmHg 47%
    07:00 +26°C° 0 mm 1 mps 753 mmHg 42%
    08:00 +29°C° 0 mm 1 mps 753 mmHg 36%
    09:00 +31°C° 0 mm 2 mps 753 mmHg 34%
    10:00 +32°C° 0 mm 2 mps 753 mmHg 32%
    11:00 +35°C° 0 mm 2 mps 753 mmHg 29%
    12:00 +35°C° 0 mm 3 mps 753 mmHg 29%
    13:00 +35°C° 0 mm 4 mps 753 mmHg 29%
    14:00 +35°C° 0 mm 5 mps 752 mmHg 29%
    15:00 +35°C° 0 mm 5 mps 752 mmHg 31%
    16:00 +34°C° 0 mm 5 mps 752 mmHg 34%
    17:00 +33°C° 0 mm 4 mps 751 mmHg 36%
    18:00 +30°C° 0 mm 4 mps 751 mmHg 43%
    19:00 +27°C° 0 mm 4 mps 751 mmHg 50%
    20:00 +25°C° 0 mm 3 mps 751 mmHg 56%
    21:00 +25°C° 0 mm 3 mps 751 mmHg 56%
    22:00 +24°C° 0 mm 3 mps 751 mmHg 56%
    23:00 +24°C° 0 mm 2 mps 751 mmHg 56%

    23 July, Tuesday

    Time Temperature Precipitation Wind Pressure Humidity
    00:00 +24°C° 0 mm 2 mps 751 mmHg 56%
    01:00 +24°C° 0 mm 2 mps 751 mmHg 56%
    02:00 +23°C° 0 mm 2 mps 751 mmHg 56%
    03:00 +22°C° 0 mm 3 mps 751 mmHg 66%
    04:00 +21°C° 0 mm 3 mps 750 mmHg 76%
    05:00 +20°C° 0 mm 3 mps 750 mmHg 87%
    06:00 +21°C° 0 mm 4 mps 750 mmHg 82%
    07:00 +23°C° 0 mm 5 mps 751 mmHg 78%
    08:00 +26°C° 0 mm 6 mps 751 mmHg 73%
    09:00 +26°C° 0.2 mm 7 mps 751 mmHg 72%
    10:00 +26°C° 0.2 mm 7 mps 751 mmHg 71%
    11:00 +26°C° 0.2 mm 7 mps 751 mmHg 69%
    12:00 +26°C° 0.2 mm 7 mps 751 mmHg 71%
    13:00 +24°C° 0.2 mm 7 mps 751 mmHg 72%
    14:00 +23°C° 0.2 mm 7 mps 751 mmHg 73%
    15:00 +23°C° 0 mm 7 mps 751 mmHg 67%
    16:00 +24°C° 0 mm 6 mps 751 mmHg 60%
    17:00 +24°C° 0 mm 6 mps 752 mmHg 54%
    18:00 +23°C° 0 mm 6 mps 752 mmHg 60%
    19:00 +21°C° 0 mm 5 mps 752 mmHg 66%
    20:00 +20°C° 0 mm 5 mps 752 mmHg 72%
    21:00 +19°C° 0 mm 4 mps 752 mmHg 76%
    22:00 +18°C° 0 mm 4 mps 752 mmHg 80%
    23:00 +17°C° 0 mm 4 mps 752 mmHg 84%

    24 July, Wednesday

    Time Temperature Precipitation Wind Pressure Humidity
    00:00 +17°C° 0 mm 4 mps 752 mmHg 84%
    01:00 +17°C° 0 mm 4 mps 752 mmHg 84%
    02:00 +17°C° 0 mm 4 mps 752 mmHg 83%
    03:00 +15°C° 0 mm 4 mps 752 mmHg 83%
    04:00 +15°C° 0 mm 5 mps 752 mmHg 83%
    05:00 +15°C° 0 mm 5 mps 752 mmHg 83%
    06:00 +17°C° 0 mm 5 mps 752 mmHg 74%
    07:00 +21°C° 0 mm 5 mps 752 mmHg 64%
    08:00 +23°C° 0 mm 5 mps 752 mmHg 54%
    09:00 +26°C° 0 mm 4 mps 752 mmHg 49%
    10:00 +27°C° 0 mm 4 mps 752 mmHg 43%
    11:00 +29°C° 0 mm 4 mps 752 mmHg 37%
    12:00 +29°C° 0 mm 4 mps 752 mmHg 37%
    13:00 +29°C° 0 mm 3 mps 752 mmHg 37%
    14:00 +30°C° 0 mm 3 mps 752 mmHg 37%
    15:00 +29°C° 0 mm 3 mps 752 mmHg 39%
    16:00 +29°C° 0 mm 3 mps 751 mmHg 41%
    17:00 +28°C° 0 mm 3 mps 751 mmHg 44%
    18:00 +27°C° 0 mm 3 mps 751 mmHg 51%
    19:00 +25°C° 0 mm 2 mps 751 mmHg 58%
    20:00 +23°C° 0 mm 2 mps 752 mmHg 65%
    21:00 +23°C° 0 mm 2 mps 752 mmHg 67%
    22:00 +21°C° 0 mm 2 mps 752 mmHg 68%
    23:00 +21°C° 0 mm 2 mps 752 mmHg 69%

    25 July, Thursday

    Time Temperature Precipitation Wind Pressure Humidity
    00:00 +21°C° 0 mm 3 mps 752 mmHg 67%
    01:00 +20°C° 0 mm 3 mps 752 mmHg 64%
    02:00 +20°C° 0 mm 3 mps 752 mmHg 62%
    03:00 +20°C° 0 mm 3 mps 752 mmHg 63%
    04:00 +20°C° 0 mm 3 mps 752 mmHg 64%
    05:00 +19°C° 0 mm 4 mps 752 mmHg 64%
    06:00 +22°C° 0 mm 4 mps 752 mmHg 59%
    07:00 +25°C° 0 mm 4 mps 753 mmHg 54%
    08:00 +27°C° 0 mm 4 mps 753 mmHg 49%
    09:00 +29°C° 0 mm 4 mps 753 mmHg 45%
    10:00 +30°C° 0 mm 4 mps 753 mmHg 41%
    11:00 +33°C° 0 mm 4 mps 753 mmHg 38%
    12:00 +32°C° 0 mm 4 mps 753 mmHg 42%
    13:00 +30°C° 0 mm 4 mps 753 mmHg 46%
    14:00 +29°C° 0 mm 4 mps 753 mmHg 50%
    15:00 +29°C° 0 mm 4 mps 752 mmHg 51%
    16:00 +29°C° 0 mm 3 mps 752 mmHg 51%
    17:00 +28°C° 0 mm 3 mps 752 mmHg 52%
    18:00 +27°C° 0 mm 2 mps 752 mmHg 60%
    19:00 +25°C° 0 mm 2 mps 752 mmHg 68%
    20:00 +23°C° 0 mm 1 mps 752 mmHg 75%
    21:00 +23°C° 0 mm 1 mps 752 mmHg 76%
    22:00 +22°C° 0 mm 1 mps 752 mmHg 78%
    23:00 +22°C° 0 mm 1 mps 752 mmHg 79%
    Show more